[Iaude] MPEC D09: 2024 CC7 [a=0.99,e=0.19,i=6.5,H=26.3]

mpec at cfa.harvard.edu mpec at cfa.harvard.edu
Fri Feb 16 08:27:58 EST 2024


M.P.E.C. 2024-D09                             Issued 2024 February 16, 13:26 UT

     The Minor Planet Electronic Circulars contain information on unusual
         minor planets, routine data on comets and natural satellites,
         and occasional editorial announcements.  They are published
    on behalf of Division F of the International Astronomical Union by the
          Minor Planet Center, Smithsonian Astrophysical Observatory,
                          Cambridge, MA 02138, U.S.A.
			  
             Prepared using the Tamkin Foundation Computer Network

                              MPC at CFA.HARVARD.EDU
            URL https://www.minorplanetcenter.net/    ISSN 1523-6714

                                    2024 CC7                                    


Observations:
     K24C07C  C2024 02 06.42920209 25 54.133-05 27 39.75         21.98GVED009F52
     K24C07C  C2024 02 06.43970009 25 51.989-05 27 14.51         22.33GVED009F52
     K24C07C  C2024 02 06.45018209 25 49.801-05 26 49.57         22.19GVED009F52
     K24C07C  C2024 02 06.46065809 25 47.645-05 26 24.41         21.99GVED009F52
     K24C07C* C2024 02 14.34011708 54 36.579+02 38 51.33         21.24wXED009F51
     K24C07C  C2024 02 14.35327108 54 31.629+02 40 01.98         21.41wXED009F51
     K24C07C  C2024 02 14.37970308 54 21.634+02 42 23.61         21.18wXED009F51
     K24C07C  C2024 02 14.51860208 53 28.961+02 54 51.49         21.00GVED009F51
     K24C07C  C2024 02 14.51925008 53 28.720+02 54 55.15         20.95GVED009F51
     K24C07C KC2024 02 14.84750308 51 47.77 +03 24 17.4          21.0 GVED009L01
     K24C07C KC2024 02 14.85108008 51 46.41 +03 24 37.0          21.0 GVED009L01
     K24C07C KC2024 02 14.85507808 51 44.89 +03 24 59.2          20.8 GVED009L01
     K24C07C KC2024 02 15.18620408 49 51.16 +03 56 47.1          21.1 GXED009858
     K24C07C KC2024 02 15.20006208 49 45.72 +03 58 07.7          21.4 GXED009858
     K24C07C KC2024 02 15.25940 08 49 22.78 +04 04 00.6          21.1 RVED009291
     K24C07C KC2024 02 15.26396 08 49 20.92 +04 04 27.1          20.5 RVED009291
     K24C07C KC2024 02 15.26850 08 49 19.12 +04 04 53.8          20.8 RVED009291

Observer details:
291 LPL/Spacewatch II.  Observer J. V. Scotti.  1.8-m f/2.7 reflector + CCD.
858 Tebbutt Observatory, Edgewood.  Observer F. B. Zoltowski.  0.51-m f/8.1
    Schmidt-Cassegrain + CCD.
F51 Pan-STARRS 1, Haleakala.  Observers J. Herman, T. Lowe, P. Minguez, A.
    Schultz, I. Smith.  Measurers K. Chambers, T. de Boer, J. Fairlamb, H.
    Gao, M. Huber, C.-C. Lin, E. Magnier, Y. Ramanjooloo, R. Wainscoat, R.
    Weryk.  1.8-m Ritchey-Chretien + CCD.
F52 Pan-STARRS 2, Haleakala.  Observers J. Herman, T. Lowe, P. Minguez, A.
    Schultz, I. Smith.  Measurers K. Chambers, T. de Boer, J. Fairlamb, H.
    Gao, M. Huber, C.-C. Lin, E. Magnier, Y. Ramanjooloo, R. Wainscoat, R.
    Weryk.  1.8-m Ritchey-Chretien + CCD.
L01 Visnjan Observatory, Tican.  Observer K. Korlevic.  1.0-m f/2.9 reflector
    + CCD.

Orbital elements:
2024 CC7                                                 Earth MOID = 0.0172 AU
Epoch 2024 Mar. 31.0 TT = JDT 2460400.5                 Bell                    
M 307.46383              (2000.0)            P               Q                  
n   0.99917004     Peri.  110.70185     -0.12952572     +0.99010264             
a   0.9909303      Node   151.68900     -0.94687808     -0.10732612             
e   0.1865201      Incl.    6.54234     -0.29435521     -0.09043158             
P   0.99           H   26.36          G   0.15           U   6                  
Residuals in seconds of arc
240206 F52  0.3-  0.1-    240214 F51  0.1+  0.0     240215 858  0.5-  0.4-
240206 F52  0.1+  0.1+    240214 F51  0.1-  0.1-    240215 858  0.0   0.4-
240206 F52  0.1-  0.1-    240214 F51  0.1-  0.0     240215 291  0.1+  0.0
240206 F52  0.2+  0.0     240214 L01  0.2+  0.5+    240215 291  0.2-  0.2-
240214 F51  0.2+  0.1-    240214 L01  0.0   0.0     240215 291  0.3+  0.0
240214 F51  0.0   0.1+    240214 L01  0.2-  0.3-

Ephemeris:
2024 CC7                 a,e,i = 0.99, 0.19, 7                   q = 0.8061
Date    TT    R. A. (2000) Decl.     Delta      r    Elong.  Phase     V
2024 01 17    09 51 46.0 -10 12 48   0.1761  1.1193   137.2    36.7    24.3
...
2024 02 01    09 38 11.0 -08 10 20   0.1114  1.0851   152.3    25.0    22.9
...
2024 02 09    09 17 50.8 -03 29 21   0.08146 1.0640   161.4    17.2    22.0
...
2024 02 15    08 50 52.5 +03 40 08   0.06221 1.0471   162.5    16.5    21.3
2024 02 16    08 44 52.4 +05 19 40   0.05936 1.0441   161.2    17.7    21.2
2024 02 17    08 38 18.4 +07 09 05   0.05664 1.0412   159.5    19.4    21.2
...
2024 02 23    07 42 17.9 +21 59 23   0.04377 1.0231   140.1    38.4    21.2
...
2024 03 02    05 12 37.0 +45 31 32   0.04037 0.9980    98.8    78.9    22.1
...
2024 03 17    00 45 16.4 +45 09 51   0.07114 0.9492    48.3   128.5    26.1

M. P. C. Staff               (C) Copyright 2024 MPC           M.P.E.C. 2024-D09





More information about the Iaude mailing list